This is the latest recevied weather packets stored in our database for station/object WW4HG. If no packets are shown the sender has not sent any weather packets the latest 10 day(s).
| Time | Temp. | Humidity | Pressure | Rain* | Wind** | Luminosity | Snow |
|---|---|---|---|---|---|---|---|
| 1778242142 | 12.78° C | 75% | 1018 hPa | 0 mm | - | 97 W/m² | - |
| 1778241839 | 12.78° C | 75% | 1017.7 hPa | 0 mm | - | 70 W/m² | - |
| 1778241536 | 12.78° C | 75% | 1017.3 hPa | 0 mm | - | 67 W/m² | - |
| 1778241234 | 12.78° C | 75% | 1017.3 hPa | 0 mm | - | 48 W/m² | - |
| 1778240930 | 12.78° C | 76% | 1017.3 hPa | 0 mm | - | 40 W/m² | - |
| 1778240627 | 12.78° C | 76% | 1017 hPa | 0 mm | - | 37 W/m² | - |
| 1778240324 | 12.78° C | 76% | 1017 hPa | 0 mm | - | 34 W/m² | - |
| 1778240022 | 12.78° C | 76% | 1017.3 hPa | 0 mm | - | 53 W/m² | - |
| 1778239719 | 12.78° C | 77% | 1016.7 hPa | 0 mm | - | 100 W/m² | - |
| 1778239416 | 12.78° C | 77% | 1016.7 hPa | 0 mm | - | 36 W/m² | - |
| 1778239112 | 12.78° C | 78% | 1017 hPa | 0 mm | - | 47 W/m² | - |
| 1778238809 | 12.78° C | 78% | 1016.7 hPa | 0 mm | - | 50 W/m² | - |
| 1778238506 | 12.78° C | 78% | 1016.7 hPa | 0 mm | - | 42 W/m² | - |
| 1778238204 | 12.78° C | 78% | 1016.7 hPa | 0 mm | - | 41 W/m² | - |
| 1778237904 | 12.78° C | 78% | 1016.7 hPa | 0 mm | - | 25 W/m² | - |
| 1778237601 | 12.78° C | 78% | 1016.3 hPa | 0 mm | - | 18 W/m² | - |
| 1778237297 | 12.78° C | 78% | 1016.3 hPa | 0 mm | - | 14 W/m² | - |
| 1778236994 | 12.78° C | 78% | 1016 hPa | 0 mm | - | 12 W/m² | - |
| 1778236692 | 12.78° C | 78% | 1016 hPa | 0 mm | - | 8 W/m² | - |
| 1778236388 | 12.78° C | 78% | 1016 hPa | 0 mm | - | 6 W/m² | - |
| 1778236086 | 12.78° C | 78% | 1016 hPa | 0 mm | - | 3 W/m² | - |
| 1778235784 | 12.78° C | 78% | 1016 hPa | 0 mm | - | 2 W/m² | - |
| 1778235481 | 12.78° C | 78% | 1016 hPa | 0 mm | - | 1 W/m² | - |
| 1778235178 | 12.78° C | 78% | 1016 hPa | 0 mm | - | 1 W/m² | - |
| 1778234876 | 12.78° C | 77% | 1015.6 hPa | 0 mm | - | 0 W/m² | - |
* Rain latest hour (hover to see other rain measurements)
** Current wind speed in m/s (hover to see current wind gust speed)